Location: Newark
(34.3481°N, 134.0494°E)
Time: 18:07:31
(UTC+00:00)

Tiros 1 - All Passes

Search period start: 20 January 2020 00:00
Search period end: 30 January 2020 00:00
Orbit: 630 x 664 km, 48.4° (Epoch: 20 January)

Date Brightness Start Highest point End Pass type
(mag) Time Alt. Az. Time Alt. Az. Time Alt. Az.
20 Jan - 04:03:43 10° SSW 04:07:46 30° SE 04:11:54 10° ENE daylight
20 Jan - 05:45:18 10° WSW 05:49:50 47° NNW 05:54:26 10° NE daylight
20 Jan - 07:29:46 10° NW 07:32:57 17° NNW 07:36:09 10° NNE daylight
20 Jan - 09:13:44 10° NNW 09:16:40 16° N 09:19:37 10° NE visible
20 Jan - 10:55:34 10° NW 10:59:59 35° NNE 11:04:24 10° E visible
20 Jan - 12:37:41 10° WNW 12:42:17 46° SW 12:46:52 10° SSE night (unlit)
21 Jan - 02:51:40 10° SE 02:52:07 10° SE 02:52:35 10° ESE daylight
21 Jan - 04:28:59 10° SW 04:33:39 74° SE 04:38:22 10° NE daylight
21 Jan - 06:12:15 10° W 06:16:13 26° NNW 06:20:14 10° NE daylight
21 Jan - 07:57:02 10° NW 07:59:44 15° N 08:02:26 10° NNE daylight
21 Jan - 09:39:44 10° NNW 09:43:22 21° NNE 09:47:01 10° ENE visible
21 Jan - 11:21:26 10° NW 11:26:14 71° NE 11:31:02 10° ESE visible
21 Jan - 13:04:42 10° W 13:08:02 19° SW 13:11:22 10° S night (unlit)
22 Jan - 03:13:51 10° S 03:17:46 27° SE 03:21:44 10° ENE daylight
22 Jan - 04:55:12 10° WSW 04:59:45 50° NNW 05:04:23 10° NE daylight
22 Jan - 06:39:35 10° WNW 06:42:50 18° NNW 06:46:05 10° NNE daylight
22 Jan - 08:23:40 10° NNW 08:26:32 16° N 08:29:24 10° NE daylight
22 Jan - 10:05:32 10° NW 10:09:53 33° NNE 10:14:15 10° E visible
22 Jan - 11:47:35 10° WNW 11:52:15 50° SW 11:56:53 10° SSE visible
23 Jan - 03:38:59 10° SW 03:43:36 68° SE 03:48:18 10° ENE daylight
23 Jan - 05:22:05 10° W 05:26:07 27° NNW 05:30:11 10° NE daylight
23 Jan - 07:06:54 10° NW 07:09:35 15° N 07:12:18 10° NNE daylight
23 Jan - 08:49:42 10° NNW 08:53:15 20° NNE 08:56:48 10° ENE visible
23 Jan - 10:31:23 10° NW 10:36:10 65° NE 10:40:57 10° ESE visible
23 Jan - 12:14:28 10° W 12:18:01 21° SW 12:21:34 10° S visible
24 Jan - 02:23:59 10° S 02:27:44 25° SE 02:31:33 10° ENE daylight
24 Jan - 04:05:07 10° WSW 04:09:41 54° NNW 04:14:20 10° NE daylight
24 Jan - 05:49:25 10° WNW 05:52:42 18° NNW 05:56:01 10° NNE daylight
24 Jan - 07:33:36 10° NNW 07:36:24 15° N 07:39:12 10° NE daylight
24 Jan - 09:15:31 10° NW 09:19:47 31° NNE 09:24:04 10° E visible
24 Jan - 10:57:29 10° WNW 11:02:11 55° SW 11:06:53 10° SE visible
25 Jan - 02:48:59 10° SW 02:53:34 61° SE 02:58:13 10° ENE daylight
25 Jan - 04:31:56 10° W 04:36:01 29° NNW 04:40:09 10° NE daylight
25 Jan - 06:16:45 10° NW 06:19:27 15° N 06:22:11 10° NNE daylight
25 Jan - 07:59:41 10° NNW 08:03:08 19° NNE 08:06:36 10° ENE daylight
25 Jan - 09:41:20 10° NW 09:46:05 60° NE 09:50:50 10° ESE visible
25 Jan - 11:24:15 10° W 11:28:00 23° SW 11:31:44 10° S visible
26 Jan - 01:34:09 10° S 01:37:44 22° SE 01:41:21 10° E daylight
26 Jan - 03:15:02 10° WSW 03:19:37 58° NW 03:24:17 10° NE daylight
26 Jan - 04:59:14 10° WNW 05:02:34 19° NNW 05:05:58 10° NNE daylight
26 Jan - 06:43:32 10° NNW 06:46:16 15° N 06:49:00 10° NE daylight
26 Jan - 08:25:29 10° NW 08:29:41 30° NNE 08:33:54 10° E daylight
26 Jan - 10:07:24 10° WNW 10:12:08 61° SW 10:16:52 10° SE visible
27 Jan - 01:59:00 10° SW 02:03:32 55° SE 02:08:07 10° ENE daylight
27 Jan - 03:41:48 10° W 03:45:55 30° NNW 03:50:06 10° NE daylight
27 Jan - 05:26:36 10° NW 05:29:20 15° N 05:32:04 10° NNE daylight
27 Jan - 07:09:39 10° NNW 07:13:00 19° NNE 07:16:22 10° ENE daylight
27 Jan - 08:51:18 10° NW 08:56:00 55° NNE 09:00:44 10° ESE visible
27 Jan - 10:34:04 10° WNW 10:37:58 25° SW 10:41:52 10° S visible
28 Jan - 00:44:21 10° S 00:47:44 20° SE 00:51:08 10° E daylight
28 Jan - 02:24:58 10° WSW 02:29:33 63° NW 02:34:14 10° NE daylight
28 Jan - 04:09:03 10° WNW 04:12:27 19° NNW 04:15:54 10° NNE daylight
28 Jan - 05:53:27 10° NNW 05:56:08 15° N 05:58:49 10° NE daylight
28 Jan - 07:35:28 10° NW 07:39:35 28° NNE 07:43:42 10° E daylight
28 Jan - 09:17:20 10° WNW 09:22:05 67° SW 09:26:51 10° SE visible
29 Jan - 01:09:02 10° SSW 01:13:30 50° SE 01:18:02 10° ENE daylight
29 Jan - 02:51:39 10° W 02:55:50 32° NNW 03:00:04 10° NE daylight
29 Jan - 04:36:26 10° NW 04:39:12 15° N 04:41:57 10° NNE daylight
29 Jan - 06:19:38 10° NNW 06:22:53 18° NNE 06:26:09 10° ENE daylight
29 Jan - 08:01:17 10° NW 08:05:56 51° NNE 08:10:36 10° ESE daylight
29 Jan - 09:43:55 10° WNW 09:47:56 27° SW 09:51:58 10° S visible
